Location: Poprad
(49.0500°N, 20.3000°E)
Time: 01:17:51
(UTC+02:00)

Oscar 11 - Pass Details

Date: 24 April 2024
Orbit: 603 x 614 km, 97.7° (Epoch: 18 May)

Event Time Altitude Azimuth Distance (km) Brightness Sun altitude
Rises 03:27:10 0° 28° (NNE) 2,893 12.0 -17.5°
Reaches altitude 10° 03:30:03 10° 48° (NE) 1,979 11.0 -17.2°
Maximum altitude 03:32:53 17° 90° (E) 1,558 9.7 -16.9°
Drops below altitude 10° 03:35:42 10° 132° (SE) 1,963 9.7 -16.5°
Sets 03:38:32 0° 152° (SSE) 2,858 10.3 -16.2°
